[[{"header":{"parameterUnit":"m.s-1","parameterCategory":1,"la1":30.2991,"la2":30.254,"lo1":-89.0895,"lo2":-89.0444,"dy":0.0017,"dx":0.0017,"nx":28,"ny":28,"refTime":"2025-07-13T21:00:00:Z","depth":0,"parameterNumber":2,"parameterNumberName":"U-component_of_WINDS"},"data":[0,0,0,0,0,0,0,0,0,0,0,0,0,0,0,0,0,0,0,0,0,0,0,0,0,0,0,0,0,0,0,0,0,0,0,0,0,0,0,0,0,0,0,0,0,0,0,0,0,0,0,0,0,0,0,0,0,0,2.5798,2.5801,0,2.5997,2.6,2.6002,2.606,2.6059,2.6058,2.6057,2.6265,2.6271,2.6278,0,0,0,0,0,0,0,0,0,0,0,0,0,2.5471,2.5477,2.5798,2.5801,2.5803,2.5997,2.6,2.6003,2.606,2.6059,2.6058,2.6056,2.6263,2.627,2.6278,0,0,0,0,0,0,0,0,0,0,0,0,0,2.5636,2.5479,2.5798,2.5855,2.5862,2.5997,2.6,2.6003,2.6061,2.6059,2.6057,2.6056,2.626,2.627,2.6279,2.6372,0,0,2.6309,2.6313,0,0,0,0,0,0,0,0,2.5627,2.5648,2.5844,2.5852,2.586,2.6002,2.5961,2.6127,2.6061,2.5985,2.6057,2.6055,2.6179,2.6195,2.6236,2.6382,2.639,2.631,2.6316,2.632,2.6323,0,0,0,0,0,0,0,2.5615,2.564,2.5877,2.5847,2.5857,2.5872,2.5894,2.5993,2.6089,2.5992,2.5997,2.6019,2.6183,2.6227,2.6242,2.6394,2.631,2.6318,2.6325,2.6328,2.6624,2.6626,0,0,0,0,0,0,2.5593,2.563,2.5871,2.5883,2.5737,2.5879,2.5904,2.5958,2.6088,2.6106,2.602,2.6021,2.6211,2.623,2.6249,2.6366,2.632,2.6329,2.6335,2.6622,2.6625,2.6627,0,0,0,0,0,0,2.5586,2.5614,2.5863,2.5758,2.5791,2.5887,2.5948,2.5963,2.6007,2.6109,2.6127,2.6047,2.621,2.6235,2.634,2.6374,2.6334,2.6343,2.662,2.6623,2.6626,2.6599,0,0,0,0,0,0,2.5576,2.5611,2.5647,2.5758,2.5796,2.595,2.595,2.5968,2.6023,2.6026,2.6139,2.6157,2.6211,2.6325,2.635,2.6386,2.635,2.6617,2.6621,2.6625,2.6597,2.6601,2.6604,0,0,0,0,0,2.5565,2.5632,2.5648,2.5677,2.5842,2.5952,2.5973,2.6033,2.6025,2.6062,2.6128,2.6153,2.6366,2.6336,2.6364,2.6404,2.6616,2.662,2.6624,2.6596,2.66,2.6604,0,0,0,0,0,0,2.5524,2.5648,2.5667,2.5773,2.5851,2.5961,2.6009,2.6036,2.6119,2.6119,2.6191,2.6216,2.6316,2.6371,2.6335,2.65,2.6492,2.6502,2.646,2.6465,2.6468,2.6453,2.6358,0,0,0,0,0,2.5527,2.5604,2.5709,2.5792,2.583,2.5913,2.5963,2.6002,2.6087,2.6121,2.6194,2.6276,2.6362,2.6416,2.6501,2.6606,2.6631,2.6647,2.665,2.6652,2.666,2.6719,2.6727,2.6641,2.6641,2.6641,0,0,2.5535,2.5612,2.5657,2.5786,2.5851,2.5931,2.5941,2.6024,2.6084,2.6134,2.6237,2.6294,2.639,2.6495,2.6545,2.6544,2.6689,2.6658,2.6658,2.6666,2.6724,2.6732,2.674,2.6644,2.6644,2.6643,0,0,2.5589,2.5655,2.5731,2.5796,2.5894,2.5949,2.5967,2.6073,2.6112,2.6216,2.6255,2.6328,2.6473,2.654,2.6593,2.6671,2.6697,2.6697,2.6713,2.677,2.6777,2.6783,2.6811,2.682,2.6705,2.6705,2.6705,0,2.5587,2.5706,2.5768,2.5849,2.5905,2.5952,2.603,2.609,2.6211,2.6249,2.6245,2.6428,2.6497,2.6618,2.6636,2.6678,2.6701,2.6685,2.6771,2.6778,2.6784,2.6812,2.6822,2.6704,2.6704,2.6704,2.6704,0,2.5698,2.5781,2.5831,2.5944,2.6006,2.6085,2.6159,2.6214,2.6248,2.6303,2.6408,2.6492,2.6593,2.6625,2.666,2.6751,2.6747,2.6756,2.6749,2.6791,2.6817,2.6828,2.6703,2.6703,2.6704,2.6704,0,0,2.5733,2.5879,2.5896,2.5948,2.6059,2.6125,2.6206,2.6304,2.635,2.6432,2.6502,2.6623,2.6632,2.6692,2.6735,2.6784,2.6841,2.6788,2.6791,2.6794,2.6946,2.6938,2.6949,2.6858,2.686,2.6862,2.6938,0,2.5801,2.5947,2.6004,2.6123,2.62,2.6246,2.6317,2.6393,2.6446,2.652,2.658,2.6664,2.667,2.6706,2.6757,2.6823,2.6872,2.6818,2.6925,2.6928,2.6899,2.6963,2.6955,2.7022,2.6948,2.695,2.6952,0,2.59,2.5981,2.6107,2.6208,2.6243,2.6305,2.6399,2.6469,2.6557,2.6592,2.6658,2.6697,2.6785,2.6772,2.6894,2.6856,2.6903,2.6942,2.6946,2.6958,2.6942,2.6976,2.7045,2.7055,2.6969,2.6967,2.6966,0,2.5912,2.6053,2.6146,2.6189,2.631,2.6352,2.6405,2.6491,2.6546,2.6628,2.6665,2.6757,2.6807,2.6878,2.6941,2.6926,2.7057,2.705,2.7089,2.7087,2.7115,2.7112,2.7191,2.7145,2.7145,2.7145,2.7145,0,2.5982,2.6057,2.6153,2.621,2.6296,2.6362,2.6445,2.6501,2.6577,2.6646,2.6692,2.6756,2.6836,2.6911,2.6961,2.7054,2.7077,2.7108,2.7121,2.7104,2.71,2.7136,2.7133,2.7148,2.7147,2.7147,2.7146,0,2.601,2.6077,2.6182,2.6286,2.6314,2.6373,2.6463,2.6521,2.6576,2.6663,2.6688,2.6774,2.6865,2.6935,2.7053,2.7087,2.7185,2.7199,2.7155,2.7161,2.7197,2.7192,2.7302,2.7319,2.7261,2.7262,2.7262,0,2.6049,2.6108,2.6219,2.6268,2.6319,2.6398,2.6454,2.6521,2.6577,2.6681,2.6726,2.6819,2.6898,2.704,2.7114,2.7205,2.7221,2.7253,2.7235,2.7216,2.7221,2.7216,2.7222,2.7255,2.7255,2.7256,2.7256,0,2.6113,2.6143,2.6221,2.631,2.6375,2.6449,2.6525,2.6562,2.6643,2.6704,2.6796,2.6857,2.6976,2.7069,2.7166,2.7222,2.7252,2.7261,2.7275,2.7258,2.723,2.7245,2.7161,2.7258,2.7258,2.7258,2.7258,2.7257,2.6148,2.6202,2.6288,2.6373,2.6436,2.6505,2.6564,2.6626,2.6703,2.6805,2.684,2.6935,2.7021,2.7155,2.7211,2.7287,2.7288,2.7308,2.7313,2.7317,2.7315,2.7218,2.7305,2.7305,2.7305,2.7305,2.7305,0,2.6213,2.627,2.6348,2.6451,2.6518,2.6539,2.6623,2.6678,2.6761,2.6838,2.6913,2.7019,2.7108,2.7189,2.7282,2.7327,2.7344,2.7349,2.7347,2.7359,2.7309,2.7287,2.7335,2.7335,2.7335,2.7335,2.7335,2.7335,2.6255,2.6347,2.6387,2.6511,2.6569,2.6661,2.6707,2.6771,2.6832,2.6948,2.7022,2.7073,2.7152,2.7251,2.7334,2.7355,2.7387,2.739,2.7414,2.7366,2.7362,2.7359,2.7339,2.7396,2.7396,2.7458,2.7459,2.7459]},{"header":{"parameterUnit":"m.s-1","parameterCategory":1,"la1":30.2991,"la2":30.254,"lo1":-89.0895,"lo2":-89.0444,"dy":0.0017,"dx":0.0017,"nx":28,"ny":28,"refTime":"2025-07-13T21:00:00:Z","depth":0,"parameterNumber":3,"parameterNumberName":"V-component_of_WINDS"},"data":[0,0,0,0,0,0,0,0,0,0,0,0,0,0,0,0,0,0,0,0,0,0,0,0,0,0,0,0,0,0,0,0,0,0,0,0,0,0,0,0,0,0,0,0,0,0,0,0,0,0,0,0,0,0,0,0,0,0,3.0048,3.0048,0,3.005,3.005,3.005,3.004,3.004,3.004,3.004,3.0038,3.0038,3.0038,0,0,0,0,0,0,0,0,0,0,0,0,0,3.0033,3.0033,3.0048,3.0048,3.0049,3.005,3.005,3.005,3.004,3.004,3.004,3.004,3.0038,3.0038,3.0038,0,0,0,0,0,0,0,0,0,0,0,0,0,3.0037,3.0033,3.0048,3.0044,3.0044,3.005,3.005,3.005,3.004,3.004,3.004,3.0039,3.0038,3.0038,3.0038,3.0048,0,0,3.0039,3.0039,0,0,0,0,0,0,0,0,3.0037,3.0038,3.0045,3.0044,3.0044,3.0045,3.0044,3.0049,3.0041,3.0042,3.004,3.0039,3.004,3.004,3.0041,3.0047,3.0047,3.0039,3.0039,3.0039,3.0039,0,0,0,0,0,0,0,3.0037,3.0038,3.0049,3.0045,3.0044,3.004,3.0041,3.0044,3.0043,3.0042,3.0041,3.0041,3.004,3.0041,3.0041,3.0047,3.0039,3.0039,3.004,3.004,3.0058,3.0058,0,0,0,0,0,0,3.0038,3.0038,3.0049,3.0049,3.004,3.0041,3.0041,3.0045,3.0043,3.0042,3.0042,3.0041,3.0041,3.0041,3.0041,3.005,3.0039,3.004,3.004,3.0057,3.0058,3.0058,0,0,0,0,0,0,3.0037,3.0039,3.0049,3.0043,3.0044,3.0042,3.0046,3.0045,3.0046,3.0043,3.0042,3.0043,3.004,3.0041,3.0045,3.005,3.004,3.004,3.0057,3.0057,3.0058,3.0069,0,0,0,0,0,0,3.0037,3.0039,3.0044,3.0043,3.0044,3.0055,3.0046,3.0045,3.0047,3.0046,3.0044,3.0044,3.004,3.0045,3.0046,3.005,3.004,3.0056,3.0057,3.0058,3.0068,3.007,3.0071,0,0,0,0,0,3.0036,3.0047,3.0044,3.0046,3.0051,3.0055,3.0056,3.0052,3.0047,3.0051,3.0049,3.0044,3.0049,3.0046,3.0046,3.0051,3.0056,3.0057,3.0058,3.0068,3.0069,3.0071,0,0,0,0,0,0,3.0048,3.0047,3.0044,3.0055,3.0055,3.0054,3.0059,3.0055,3.0056,3.0055,3.0049,3.0049,3.0054,3.0053,3.0049,3.0058,3.0051,3.0052,3.0059,3.0061,3.0062,3.0062,3.004,0,0,0,0,0,3.0052,3.0057,3.0055,3.0065,3.0065,3.0062,3.0064,3.0061,3.006,3.006,3.0058,3.0057,3.0058,3.0059,3.006,3.0067,3.0066,3.007,3.0072,3.0073,3.0074,3.0075,3.0076,3.006,3.006,3.006,0,0,3.006,3.006,3.0063,3.0067,3.0067,3.007,3.0062,3.0067,3.0069,3.0061,3.0065,3.0063,3.0061,3.0067,3.0069,3.0066,3.0078,3.0074,3.0075,3.0075,3.0076,3.0077,3.0079,3.0061,3.0061,3.0061,0,0,3.0076,3.0077,3.0084,3.0084,3.0084,3.0081,3.0083,3.0081,3.008,3.0084,3.0077,3.0078,3.0081,3.0079,3.0079,3.009,3.0085,3.0091,3.0098,3.0099,3.01,3.0102,3.0104,3.0105,3.0091,3.0091,3.0091,0,3.0085,3.0092,3.0088,3.0093,3.0093,3.0086,3.0092,3.0091,3.0091,3.0091,3.0087,3.0088,3.0087,3.0091,3.0093,3.0093,3.0093,3.0091,3.0101,3.0102,3.0103,3.0105,3.0106,3.0092,3.0092,3.0092,3.0092,0,3.0103,3.0107,3.0112,3.0112,3.0113,3.0119,3.0113,3.0115,3.011,3.0107,3.011,3.0107,3.0107,3.0107,3.0103,3.0109,3.0107,3.0102,3.0096,3.0105,3.0107,3.0108,3.0093,3.0093,3.0092,3.0092,0,0,3.0128,3.0124,3.0126,3.0125,3.0123,3.0125,3.0128,3.0128,3.0128,3.0127,3.0128,3.0129,3.0124,3.0123,3.0119,3.012,3.0127,3.0114,3.0114,3.0116,3.013,3.0134,3.0135,3.0123,3.0123,3.0123,3.013,0,3.0143,3.015,3.0145,3.0152,3.0154,3.0145,3.0148,3.0145,3.0142,3.0142,3.0137,3.0137,3.0131,3.013,3.0131,3.0126,3.0129,3.0125,3.0122,3.0122,3.0123,3.0137,3.0141,3.0148,3.0131,3.0131,3.0131,0,3.0162,3.0161,3.0169,3.0163,3.0164,3.0167,3.0164,3.0165,3.0161,3.0158,3.0156,3.015,3.015,3.0143,3.0143,3.014,3.0138,3.0135,3.0135,3.0134,3.0128,3.0136,3.015,3.0151,3.0133,3.0133,3.0133,0,3.0177,3.0179,3.0183,3.0182,3.0177,3.0178,3.0176,3.0171,3.017,3.0168,3.0167,3.0164,3.0162,3.0159,3.0151,3.0147,3.015,3.0144,3.0146,3.0147,3.0148,3.0148,3.0162,3.0147,3.0147,3.0147,3.0147,0,3.0194,3.0199,3.019,3.0192,3.0196,3.0188,3.0192,3.0188,3.0184,3.0184,3.0175,3.0175,3.0166,3.0163,3.0157,3.0156,3.0156,3.0152,3.015,3.0153,3.0153,3.0151,3.015,3.0148,3.0148,3.0147,3.0147,0,3.0213,3.0208,3.0211,3.0205,3.0203,3.0206,3.02,3.02,3.0195,3.0195,3.0194,3.0186,3.0183,3.0175,3.017,3.0165,3.0165,3.0163,3.0167,3.0166,3.0169,3.0168,3.0182,3.0183,3.0168,3.0168,3.0169,0,3.0224,3.0227,3.0221,3.0221,3.0218,3.0218,3.0217,3.0209,3.0207,3.0201,3.0202,3.0198,3.0195,3.019,3.0182,3.0177,3.0174,3.0179,3.0173,3.0175,3.0173,3.0173,3.0172,3.018,3.0181,3.0181,3.0181,0,3.0244,3.024,3.0239,3.0236,3.0235,3.0233,3.0229,3.0229,3.0219,3.0218,3.0215,3.0212,3.0206,3.0202,3.0195,3.019,3.0183,3.0182,3.0183,3.0185,3.0187,3.0185,3.017,3.0182,3.0182,3.0182,3.0182,3.0182,3.0258,3.0259,3.0255,3.0253,3.025,3.0246,3.0246,3.024,3.0238,3.0233,3.0227,3.0224,3.0217,3.0208,3.0203,3.0199,3.0196,3.0197,3.0197,3.0197,3.0197,3.0188,3.0198,3.0198,3.0198,3.0198,3.0198,0,3.0276,3.0272,3.0271,3.0266,3.0264,3.0258,3.0253,3.0251,3.0249,3.0243,3.024,3.0235,3.023,3.0221,3.0215,3.0213,3.0209,3.0212,3.0211,3.021,3.0201,3.0201,3.0214,3.0214,3.0214,3.0214,3.0214,3.0214,3.0285,3.0287,3.0282,3.028,3.0276,3.0273,3.0271,3.0267,3.0262,3.0257,3.0253,3.0247,3.0239,3.0232,3.0226,3.0224,3.0221,3.0224,3.022,3.0212,3.0211,3.021,3.0209,3.0224,3.0224,3.0229,3.0229,3.023]}]]